GTI152 KLAX-KMIA

Flight info

Callsign GTI152
Flight time N/A
Altitude 33000
Route ZILLI5 ZILLI CNERY BLH SPTFR KA15Q ITUCO ALIBY INK/N0487F350 SJT AGJ BRKAT LCH ORICH LEV Q102 BLVNS Y290 DOWRY FROGZ5
Aircraft B77L/H-SDE1E2E3FGHIJ2J3J4J5M1RWXY/LB1D1

Departure

Time 2026-04-23 15:43
Airport Los Angeles International Airport (KLAX)

Arrival

Time N/A
Airport Miami International Airport (KMIA)
Time Latitude Longitude Altitude Speed Heading
2026-04-23 14:54 33.93466 -118.38212 99 ft 0 kts 225°
2026-04-23 15:33 33.93466 -118.38211 99 ft 1 kts 225°
2026-04-23 15:34 33.93481 -118.38191 102 ft 4 kts 243°
2026-04-23 15:34 33.93488 -118.38166 100 ft 1 kts 263°
2026-04-23 15:34 33.93489 -118.38138 100 ft 4 kts 284°
2026-04-23 15:34 33.93482 -118.38119 99 ft 4 kts 332°
2026-04-23 15:35 33.93464 -118.38116 98 ft 4 kts 14°
2026-04-23 15:35 33.93438 -118.38124 100 ft 4 kts
2026-04-23 15:35 33.93424 -118.38126 98 ft 0 kts 358°
2026-04-23 15:40 33.93430 -118.38126 99 ft 4 kts 358°
2026-04-23 15:40 33.93497 -118.38129 100 ft 13 kts 358°
2026-04-23 15:40 33.93584 -118.38133 102 ft 12 kts 346°
2026-04-23 15:41 33.93617 -118.38214 106 ft 12 kts 264°
2026-04-23 15:41 33.93635 -118.38277 107 ft 7 kts 329°
2026-04-23 15:41 33.93684 -118.38288 112 ft 7 kts 349°
2026-04-23 15:41 33.93718 -118.38325 112 ft 7 kts 294°
2026-04-23 15:42 33.93724 -118.38396 111 ft 11 kts 264°
2026-04-23 15:42 33.93709 -118.38544 110 ft 39 kts 263°
2026-04-23 15:42 33.93638 -118.39271 109 ft 135 kts 263°
2026-04-23 15:42 33.93497 -118.40734 313 ft 200 kts 264°
2026-04-23 15:43 33.93340 -118.42373 1342 ft 187 kts 263°
2026-04-23 15:43 33.93186 -118.43880 2215 ft 177 kts 264°
2026-04-23 15:43 33.93011 -118.45326 2828 ft 174 kts 255°
2026-04-23 15:43 33.92353 -118.46626 2983 ft 192 kts 230°
2026-04-23 15:44 33.91482 -118.47939 3215 ft 211 kts 234°
2026-04-23 15:44 33.90559 -118.49436 3436 ft 234 kts 234°
2026-04-23 15:44 33.89509 -118.51050 3769 ft 253 kts 232°
2026-04-23 15:44 33.88381 -118.52738 4299 ft 265 kts 232°
2026-04-23 15:45 33.87206 -118.54493 4938 ft 273 kts 232°
2026-04-23 15:45 33.85997 -118.56280 5663 ft 276 kts 229°
2026-04-23 15:45 33.84525 -118.57801 6368 ft 281 kts 216°
2026-04-23 15:45 33.82890 -118.59106 7124 ft 283 kts 214°
2026-04-23 15:46 33.81241 -118.60396 7913 ft 283 kts 216°
2026-04-23 15:46 33.79601 -118.61717 8688 ft 284 kts 217°
2026-04-23 15:46 33.77959 -118.63031 9431 ft 285 kts 212°
2026-04-23 15:46 33.76008 -118.63638 9957 ft 302 kts 180°
2026-04-23 15:47 33.73937 -118.62987 10394 ft 322 kts 154°
2026-04-23 15:47 33.72133 -118.61232 10546 ft 349 kts 128°
2026-04-23 15:47 33.71064 -118.58533 10719 ft 372 kts 101°
2026-04-23 15:47 33.70811 -118.55373 10890 ft 390 kts 90°
2026-04-23 15:48 33.70789 -118.52065 11350 ft 403 kts 88°
2026-04-23 15:48 33.70817 -118.48668 11931 ft 412 kts 88°
2026-04-23 15:48 33.70840 -118.45194 12675 ft 418 kts 89°
2026-04-23 15:48 33.70839 -118.41676 13412 ft 424 kts 89°
2026-04-23 15:49 33.70811 -118.38108 14093 ft 431 kts 90°
2026-04-23 15:49 33.70761 -118.34491 14747 ft 437 kts 90°
2026-04-23 15:49 33.70695 -118.30831 15448 ft 441 kts 91°
2026-04-23 15:49 33.70618 -118.27127 16137 ft 445 kts 91°
2026-04-23 15:50 33.70535 -118.23392 16789 ft 451 kts 91°
2026-04-23 15:50 33.70449 -118.19603 17416 ft 456 kts 91°
2026-04-23 15:50 33.70360 -118.15772 18044 ft 462 kts 91°
2026-04-23 15:50 33.70269 -118.11900 18600 ft 467 kts 91°
2026-04-23 15:51 33.70177 -118.07995 19177 ft 470 kts 92°
2026-04-23 15:51 33.70083 -118.04052 19766 ft 474 kts 92°
2026-04-23 15:51 33.69988 -118.00079 20346 ft 477 kts 92°
2026-04-23 15:51 33.69891 -117.96092 20945 ft 481 kts 92°
2026-04-23 15:52 33.69792 -117.92055 21495 ft 485 kts 92°
2026-04-23 15:52 33.69690 -117.87990 22035 ft 489 kts 92°
2026-04-23 15:52 33.69587 -117.83893 22569 ft 493 kts 92°
2026-04-23 15:52 33.69481 -117.79767 23090 ft 497 kts 92°
2026-04-23 15:53 33.69374 -117.75618 23624 ft 501 kts 93°
2026-04-23 15:53 33.69263 -117.71411 24061 ft 505 kts 93°
2026-04-23 15:53 33.69151 -117.67177 24476 ft 509 kts 93°
2026-04-23 15:53 33.69036 -117.62907 24889 ft 514 kts 93°
2026-04-23 15:54 33.68918 -117.58612 25331 ft 518 kts 93°
2026-04-23 15:54 33.68798 -117.54265 25741 ft 522 kts 93°
2026-04-23 15:54 33.68676 -117.49886 26134 ft 526 kts 93°
2026-04-23 15:54 33.68552 -117.45482 26553 ft 531 kts 94°
2026-04-23 15:55 33.68424 -117.41037 26909 ft 534 kts 94°
2026-04-23 15:55 33.68295 -117.36563 27290 ft 538 kts 94°
2026-04-23 15:55 33.68162 -117.32052 27683 ft 542 kts 94°
2026-04-23 15:55 33.68028 -117.27580 28063 ft 545 kts 94°
2026-04-23 15:56 33.67890 -117.23020 28456 ft 549 kts 94°
2026-04-23 15:56 33.67747 -117.18360 28809 ft 553 kts 94°
2026-04-23 15:56 33.67606 -117.13796 29149 ft 556 kts 95°
2026-04-23 15:56 33.67461 -117.09140 29513 ft 559 kts 95°
2026-04-23 15:57 33.67314 -117.04479 29952 ft 559 kts 95°
2026-04-23 15:57 33.67166 -116.99819 30409 ft 559 kts 95°
2026-04-23 15:57 33.67016 -116.95154 30795 ft 559 kts 95°
2026-04-23 15:57 33.66864 -116.90491 31167 ft 560 kts 95°
2026-04-23 15:58 33.66709 -116.85827 31521 ft 560 kts 95°
2026-04-23 15:58 33.66553 -116.81146 31840 ft 561 kts 95°
2026-04-23 15:58 33.66394 -116.76457 32169 ft 562 kts 95°
2026-04-23 15:58 33.66232 -116.71772 32463 ft 563 kts 95°
2026-04-23 15:59 33.66069 -116.67071 32822 ft 563 kts 95°
2026-04-23 15:59 33.65904 -116.62380 33018 ft 566 kts 95°
2026-04-23 15:59 33.65735 -116.57632 33050 ft 569 kts 96°
2026-04-23 16:00 33.65399 -116.48202 33082 ft 563 kts 96°
2026-04-23 16:00 33.65056 -116.38817 33041 ft 562 kts 96°
2026-04-23 16:01 33.64704 -116.29455 33046 ft 561 kts 96°
2026-04-23 16:01 33.64342 -116.20104 33029 ft 562 kts 96°
2026-04-23 16:02 33.63979 -116.10733 33025 ft 564 kts 96°
2026-04-23 16:02 33.63605 -116.01319 33018 ft 566 kts 96°
2026-04-23 16:03 33.63222 -115.91875 33002 ft 567 kts 96°
2026-04-23 16:03 33.62832 -115.82417 33010 ft 568 kts 96°
2026-04-23 16:04 33.62434 -115.72955 33011 ft 566 kts 96°
2026-04-23 16:04 33.62032 -115.63537 33004 ft 564 kts 96°
2026-04-23 16:05 33.61704 -115.55742 33011 ft 562 kts 95°
2026-04-23 16:05 33.61430 -115.44862 33009 ft 562 kts 94°
2026-04-23 16:06 33.61237 -115.35496 33006 ft 562 kts 94°
2026-04-23 16:06 33.61011 -115.26115 32999 ft 562 kts 95°
2026-04-23 16:07 33.60758 -115.16731 33007 ft 563 kts 95°
2026-04-23 16:07 33.60499 -115.07331 33006 ft 564 kts 95°
2026-04-23 16:08 33.60236 -114.97922 33008 ft 565 kts 95°
2026-04-23 16:08 33.59967 -114.88496 33007 ft 566 kts 95°
2026-04-23 16:09 33.59672 -114.79056 33008 ft 566 kts 97°
2026-04-23 16:09 33.58556 -114.69768 33005 ft 560 kts 107°
2026-04-23 16:10 33.56762 -114.60678 33008 ft 560 kts 108°
2026-04-23 16:10 33.54969 -114.51576 33002 ft 561 kts 108°
2026-04-23 16:11 33.53222 -114.42453 33000 ft 562 kts 107°
2026-04-23 16:11 33.51485 -114.33306 32991 ft 563 kts 107°
2026-04-23 16:12 33.49738 -114.24164 32988 ft 563 kts 107°
2026-04-23 16:12 33.47979 -114.15020 32997 ft 563 kts 107°
2026-04-23 16:13 33.46210 -114.05871 33001 ft 564 kts 107°
2026-04-23 16:13 33.43545 -113.92152 32997 ft 564 kts 107°
2026-04-23 16:14 33.42062 -113.84549 33011 ft 564 kts 107°
2026-04-23 16:14 33.39980 -113.73925 33031 ft 565 kts 107°
2026-04-23 16:15 33.38074 -113.64825 33029 ft 564 kts 109°
2026-04-23 16:15 33.36337 -113.57242 33018 ft 564 kts 110°
2026-04-23 16:16 33.34243 -113.48192 33133 ft 567 kts 109°
2026-04-23 16:16 33.33203 -113.43649 33488 ft 566 kts 109°
2026-04-23 16:16 33.32168 -113.39103 33857 ft 566 kts 109°
2026-04-23 16:17 33.31140 -113.34568 34124 ft 566 kts 109°
2026-04-23 16:17 33.30124 -113.30087 34386 ft 566 kts 109°
2026-04-23 16:17 33.29092 -113.25543 34643 ft 567 kts 109°
2026-04-23 16:17 33.28056 -113.20994 34853 ft 568 kts 109°
2026-04-23 16:18 33.25962 -113.11839 34964 ft 573 kts 109°
2026-04-23 16:18 33.23863 -113.02690 34947 ft 569 kts 109°
2026-04-23 16:19 33.21773 -112.93607 34968 ft 566 kts 109°
2026-04-23 16:19 33.19681 -112.84565 34970 ft 564 kts 110°
2026-04-23 16:20 33.17586 -112.75545 34973 ft 564 kts 109°
2026-04-23 16:20 33.15483 -112.66520 34978 ft 565 kts 110°
2026-04-23 16:21 33.13370 -112.57481 34976 ft 567 kts 109°
2026-04-23 16:21 33.11241 -112.48403 34974 ft 568 kts 110°
2026-04-23 16:22 33.09102 -112.39319 34966 ft 569 kts 109°
2026-04-23 16:22 33.06954 -112.30228 34958 ft 571 kts 109°
2026-04-23 16:23 33.04796 -112.21127 34963 ft 571 kts 109°
2026-04-23 16:23 33.02630 -112.12024 34972 ft 570 kts 109°
2026-04-23 16:24 33.00461 -112.02938 34997 ft 570 kts 109°
2026-04-23 16:24 32.98289 -111.93875 35005 ft 569 kts 109°
2026-04-23 16:25 32.96113 -111.84824 35016 ft 568 kts 109°
2026-04-23 16:25 32.93936 -111.75804 35025 ft 566 kts 109°
2026-04-23 16:26 32.91758 -111.66809 35014 ft 565 kts 109°
2026-04-23 16:26 32.89589 -111.57886 35002 ft 565 kts 109°
2026-04-23 16:27 32.87403 -111.48921 34990 ft 564 kts 109°
2026-04-23 16:27 32.85210 -111.39954 34968 ft 564 kts 109°
2026-04-23 16:28 32.83011 -111.30998 34968 ft 564 kts 109°
2026-04-23 16:28 32.80807 -111.22053 34979 ft 564 kts 109°
2026-04-23 16:29 32.78597 -111.13109 34973 ft 564 kts 109°
2026-04-23 16:29 32.76379 -111.04167 34961 ft 564 kts 109°
2026-04-23 16:30 32.74160 -110.95245 34959 ft 564 kts 109°
2026-04-23 16:30 32.71934 -110.86328 34957 ft 562 kts 109°
2026-04-23 16:31 32.69705 -110.77431 34968 ft 562 kts 109°
2026-04-23 16:31 32.67471 -110.68543 34954 ft 562 kts 109°
2026-04-23 16:32 32.65234 -110.59670 34959 ft 561 kts 109°
2026-04-23 16:32 32.62993 -110.50812 34953 ft 561 kts 109°
2026-04-23 16:33 32.60743 -110.41949 34965 ft 561 kts 109°
2026-04-23 16:33 32.58486 -110.33088 34941 ft 562 kts 109°
2026-04-23 16:34 32.56224 -110.24229 34952 ft 561 kts 109°
2026-04-23 16:34 32.53961 -110.15391 34953 ft 560 kts 109°
2026-04-23 16:35 32.51694 -110.06574 34945 ft 559 kts 109°
2026-04-23 16:35 32.49425 -109.97770 34936 ft 558 kts 109°
2026-04-23 16:36 32.47169 -109.88966 34933 ft 558 kts 109°
2026-04-23 16:36 32.44917 -109.80184 34918 ft 557 kts 109°
2026-04-23 16:37 32.42672 -109.71417 34917 ft 557 kts 109°
2026-04-23 16:37 32.40456 -109.62636 34905 ft 556 kts 108°
2026-04-23 16:38 32.38244 -109.53874 34895 ft 555 kts 109°
2026-04-23 16:38 32.36026 -109.45145 34901 ft 554 kts 109°
2026-04-23 16:39 32.33801 -109.36427 34902 ft 553 kts 109°
2026-04-23 16:39 32.31585 -109.27778 34899 ft 553 kts 109°
2026-04-23 16:40 32.29339 -109.19037 34897 ft 552 kts 109°
2026-04-23 16:40 32.27115 -109.10405 34904 ft 552 kts 109°
2026-04-23 16:41 32.24859 -109.01675 34948 ft 552 kts 109°
2026-04-23 16:41 32.22624 -108.93055 34943 ft 555 kts 110°